User: anonymous   Login
Location: Cran-Gévrier
(45.9039°N, 6.1012°E)
Time: 09:47:57
(UTC+00:00)
Language:

Cosmos 2278 Rocket - Orbit

View from above orbital plane
View from above orbital plane
View from above satellite
View from above satellite

Ground track
Ground track

The orbit data is extracted from the following two-line orbital elements,

1 23088U 94023B   24114.88736246  .00000152  00000-0  10331-3 0  9994
2 23088  71.0003  68.8613 0005712 263.5716  96.4756 14.14838188549226
Epoch (UTC): 23 April 2024 21:17:48
Eccentricity: 0.0005712
inclination: 71.0003°
perigee height: 839 km
apogee height: 847 km
right ascension of ascending node: 68.8613°
argument of perigee: 263.5716°
revolutions per day: 14.14838188
mean anomaly at epoch: 96.4756°
orbit number at epoch: 54922

The dashed part of the orbit path shows where the satellite is in the earth's shadow,  

DLR